Retour au catalogue

W75/ABS-1B

HOT BIRD 3

ActifCommunicationsGEO
NORAD 24931·PAYLOAD·🇪🇺 EU

Lancé Sep 2, 1997 depuis Guiana Space Centre

Loading…

TLE

FraisSource: Space-Track

Époque: Sep 14, 2026, 05:45 UTC

1 24931U 97049A   26257.23981700 -.00000135  00000-0  00000-0 0  9990
2 24931  11.5009  31.3894 0022398  54.1944 290.2635  1.02480338107606

Suivez W75/ABS-1B en temps réel avec AllMySat

Download on the App Store